START_TIME,STEP,MOV.,H8,t_acc.,H43,t_acc.,M25,t_acc.,H9,t_acc.
1989-08-26T15:00:30.150 ,1,0,0.,12.0,0.,12.0,0.,12.0,0.,12.0
1989-08-26T15:00:42.150 ,1,0,0.,12.0,0.,12.0,0.,12.0,0.,12.0
1989-08-26T15:00:54.150 ,0,0,0.,12.0,0.,12.0,0.,12.0,0.,12.0
1989-08-26T15:01:06.150 ,0,0,0.,12.0,0.,12.0,0.,12.0,0.,12.0
1989-08-26T15:01:18.150 ,0,0,0.,12.0,0.,12.0,0.,12.0,0.,12.0
1989-08-26T15:01:30.150 ,0,0,0.,12.0,0.,12.0,0.,12.0,0.,12.0
1989-08-26T15:01:42.150 ,0,0,0.,12.0,0.,12.0,0.,12.0,0.,12.0
1989-08-26T15:01:54.150 ,0,0,0.,12.0,0.,12.0,0.,12.0,0.,12.0
1989-08-26T15:02:06.150 ,0,0,0.,12.0,0.,12.0,0.,12.0,0.,12.0
1989-08-26T15:02:18.150 ,0,0,0.,12.0,0.,12.0,0.,12.0,0.,12.0
1989-08-26T15:02:30.150 ,1,0,0.,12.0,0.,12.0,0.,12.0,0.,12.0
1989-08-26T15:02:42.150 ,1,0,0.,12.0,0.,12.0,0.,12.0,0.,12.0
1989-08-26T15:02:54.150 ,1,0,0.,12.0,0.,12.0,0.,12.0,0.,12.0
1989-08-26T15:03:06.150 ,1,0,0.,12.0,0.,12.0,0.,12.0,0.,12.0
1989-08-26T15:03:18.150 ,2,0,0.,12.0,0.,12.0,0.,12.0,0.,12.0
1989-08-26T15:03:30.150 ,2,0,0.,12.0,0.,12.0,0.,12.0,0.,12.0
1989-08-26T15:03:42.150 ,2,0,0.,12.0,0.,12.0,0.,12.0,0.,12.0
1989-08-26T15:03:54.150 ,2,0,1.,12.0,0.,12.0,0.,12.0,0.,12.0
1989-08-26T15:04:06.150 ,3,0,0.,12.0,0.,12.0,0.,12.0,0.,12.0
1989-08-26T15:04:18.150 ,3,0,0.,12.0,0.,12.0,0.,12.0,0.,12.0
1989-08-26T15:04:30.150 ,3,0,0.,12.0,0.,12.0,0.,12.0,0.,12.0
1989-08-26T15:04:42.150 ,3,0,0.,12.0,0.,12.0,0.,12.0,0.,12.0
1989-08-26T15:04:54.150 ,4,0,0.,12.0,0.,12.0,0.,12.0,0.,12.0
1989-08-26T15:05:06.150 ,4,0,0.,12.0,0.,12.0,0.,12.0,0.,12.0
1989-08-26T15:05:18.150 ,4,0,0.,12.0,0.,12.0,0.,12.0,0.,12.0
1989-08-26T15:05:30.150 ,4,0,0.,12.0,0.,12.0,0.,12.0,0.,12.0
1989-08-26T15:05:42.150 ,5,0,0.,12.0,0.,12.0,0.,12.0,0.,12.0
1989-08-26T15:05:54.150 ,5,0,0.,12.0,0.,12.0,0.,12.0,0.,12.0
1989-08-26T15:06:06.150 ,5,1,,0,,0,,0,,0
1989-08-26T15:06:18.150 ,5,1,,0,,0,,0,,0
1989-08-26T15:06:45.150 ,0,0,,0,,0,,0,,0
1989-08-26T15:06:57.150 ,0,0,0.,12.0,0.,12.0,0.,12.0,0.,12.0
1989-08-26T15:06:54.150 ,0,0,0.,12.0,0.,12.0,0.,12.0,0.,12.0
1989-08-26T15:07:06.150 ,0,0,0.,12.0,0.,12.0,0.,12.0,0.,12.0
1989-08-26T15:07:18.150 ,7,0,0.,12.0,0.,12.0,0.,12.0,0.,12.0
1989-08-26T15:07:30.150 ,7,0,0.,12.0,0.,12.0,0.,12.0,0.,12.0
1989-08-26T15:07:42.150 ,7,0,0.,12.0,0.,12.0,0.,12.0,0.,12.0
1989-08-26T15:07:54.150 ,7,0,0.,12.0,0.,12.0,0.,12.0,0.,12.0
1989-08-26T15:08:06.150 ,7,0,0.,12.0,0.,12.0,0.,12.0,0.,12.0
1989-08-26T15:08:18.150 ,7,0,0.,12.0,0.,12.0,0.,12.0,0.,12.0
1989-08-26T15:08:30.150 ,7,0,0.,12.0,0.,12.0,0.,12.0,0.,12.0
1989-08-26T15:08:42.150 ,7,0,0.,12.0,0.,12.0,0.,12.0,0.,12.0
1989-08-26T15:08:54.150 ,6,0,0.,12.0,0.,12.0,0.,12.0,0.,12.0
1989-08-26T15:09:06.150 ,6,0,0.,12.0,0.,12.0,0.,12.0,0.,12.0
1989-08-26T15:09:18.150 ,6,0,0.,12.0,0.,12.0,0.,12.0,0.,12.0
1989-08-26T15:09:30.150 ,6,0,0.,12.0,0.,12.0,0.,12.0,0.,12.0
1989-08-26T15:09:42.150 ,5,0,0.,12.0,0.,12.0,0.,12.0,0.,12.0
1989-08-26T15:09:54.150 ,5,0,0.,12.0,0.,12.0,0.,12.0,0.,12.0
1989-08-26T15:10:06.150 ,5,0,0.,12.0,0.,12.0,0.,12.0,0.,12.0
1989-08-26T15:10:18.150 ,5,0,0.,12.0,0.,12.0,0.,12.0,0.,12.0
1989-08-26T15:10:30.150 ,4,0,0.,12.0,0.,12.0,0.,12.0,0.,12.0
1989-08-26T15:10:42.150 ,4,0,0.,12.0,0.,12.0,0.,12.0,0.,12.0
1989-08-26T15:10:54.150 ,4,0,0.,12.0,0.,12.0,0.,12.0,0.,12.0
1989-08-26T15:11:06.150 ,4,0,0.,12.0,0.,12.0,0.,12.0,0.,12.0
1989-08-26T15:11:18.150 ,3,0,0.,12.0,0.,12.0,0.,12.0,0.,12.0
1989-08-26T15:11:30.150 ,3,0,0.,12.0,0.,12.0,0.,12.0,0.,12.0
1989-08-26T15:11:42.150 ,3,0,0.,12.0,0.,12.0,0.,12.0,0.,12.0
1989-08-26T15:11:54.150 ,3,0,0.,12.0,0.,12.0,0.,12.0,0.,12.0
1989-08-26T15:12:06.150 ,2,0,0.,12.0,0.,12.0,0.,12.0,0.,12.0
1989-08-26T15:12:18.150 ,2,0,0.,12.0,0.,12.0,0.,12.0,0.,12.0
1989-08-26T15:12:30.150 ,2,0,0.,12.0,0.,12.0,0.,12.0,0.,12.0
1989-08-26T15:12:42.150 ,2,0,0.,12.0,0.,12.0,0.,12.0,0.,12.0
1989-08-26T15:12:54.150 ,1,0,0.,12.0,0.,12.0,0.,12.0,0.,12.0
1989-08-26T15:13:06.150 ,1,0,0.,12.0,0.,12.0,0.,12.0,0.,12.0
1989-08-26T15:13:18.150 ,1,0,0.,12.0,0.,12.0,0.,12.0,0.,12.0
1989-08-26T15:13:30.150 ,1,0,0.,12.0,0.,12.0,0.,12.0,0.,12.0
1989-08-26T15:13:42.150 ,0,0,0.,12.0,0.,12.0,0.,12.0,0.,12.0
1989-08-26T15:13:54.150 ,0,0,0.,12.0,0.,12.0,0.,12.0,0.,12.0
1989-08-26T15:14:06.150 ,0,0,0.,12.0,0.,12.0,0.,12.0,0.,12.0
1989-08-26T15:14:18.150 ,0,0,0.,12.0,0.,12.0,0.,12.0,0.,12.0
1989-08-26T15:14:30.150 ,0,0,0.,12.0,0.,12.0,0.,12.0,0.,12.0
1989-08-26T15:14:42.150 ,0,0,0.,12.0,0.,12.0,0.,12.0,0.,12.0
1989-08-26T15:14:54.150 ,0,0,0.,12.0,0.,12.0,0.,12.0,0.,12.0
1989-08-26T15:15:06.150 ,0,0,0.,12.0,0.,12.0,0.,12.0,0.,12.0
1989-08-26T15:15:18.150 ,1,0,0.,12.0,0.,12.0,0.,12.0,0.,12.0
1989-08-26T15:15:30.150 ,1,0,0.,12.0,0.,12.0,0.,12.0,0.,12.0
1989-08-26T15:15:42.150 ,1,0,0.,12.0,0.,12.0,0.,12.0,0.,12.0
1989-08-26T15:15:54.150 ,1,0,0.,12.0,0.,12.0,0.,12.0,0.,12.0
1989-08-26T15:16:06.150 ,2,0,0.,12.0,0.,12.0,0.,12.0,0.,12.0
1989-08-26T15:16:18.150 ,2,0,0.,12.0,0.,12.0,0.,12.0,0.,12.0
1989-08-26T15:16:30.150 ,2,0,0.,12.0,0.,12.0,0.,12.0,0.,12.0
1989-08-26T15:16:42.150 ,2,0,0.,12.0,0.,12.0,0.,12.0,0.,12.0
1989-08-26T15:16:54.150 ,3,0,0.,12.0,0.,12.0,0.,12.0,0.,12.0
1989-08-26T15:17:06.150 ,3,0,0.,12.0,0.,12.0,0.,12.0,0.,12.0
1989-08-26T15:17:18.150 ,3,0,0.,12.0,0.,12.0,0.,12.0,0.,12.0
1989-08-26T15:17:30.150 ,3,0,0.,12.0,0.,12.0,0.,12.0,0.,12.0
1989-08-26T15:17:42.150 ,4,0,0.,12.0,0.,12.0,0.,12.0,0.,12.0
1989-08-26T15:17:54.150 ,4,0,0.,12.0,0.,12.0,0.,12.0,0.,12.0
1989-08-26T15:18:06.150 ,4,0,0.,12.0,0.,12.0,0.,12.0,0.,12.0
1989-08-26T15:18:18.150 ,4,0,0.,12.0,0.,12.0,0.,12.0,0.,12.0
1989-08-26T15:18:30.150 ,5,0,0.,12.0,0.,12.0,0.,12.0,0.,12.0
1989-08-26T15:18:42.150 ,5,0,0.,12.0,0.,12.0,0.,12.0,0.,12.0
1989-08-26T15:18:54.150 ,5,0,0.,12.0,0.,12.0,0.,12.0,0.,12.0
1989-08-26T15:19:06.150 ,5,0,0.,12.0,0.,12.0,0.,12.0,0.,12.0
1989-08-26T15:19:18.150 ,6,0,0.,12.0,0.,12.0,0.,12.0,0.,12.0
1989-08-26T15:19:30.150 ,6,0,0.,12.0,0.,12.0,0.,12.0,0.,12.0
1989-08-26T15:19:42.150 ,6,0,0.,12.0,0.,12.0,0.,12.0,0.,12.0
1989-08-26T15:19:54.150 ,6,0,0.,12.0,0.,12.0,0.,12.0,0.,12.0
1989-08-26T15:20:06.150 ,7,0,0.,12.0,0.,12.0,0.,12.0,0.,12.0
1989-08-26T15:20:18.150 ,7,0,0.,12.0,0.,12.0,0.,12.0,0.,12.0
1989-08-26T15:20:30.150 ,7,0,0.,12.0,0.,12.0,0.,12.0,0.,12.0
1989-08-26T15:20:42.150 ,7,0,0.,12.0,0.,12.0,0.,12.0,0.,12.0
1989-08-26T15:20:54.150 ,7,0,0.,12.0,0.,12.0,0.,12.0,0.,12.0
1989-08-26T15:21:06.150 ,7,0,0.,12.0,0.,12.0,0.,12.0,0.,12.0
1989-08-26T15:21:18.150 ,7,0,0.,12.0,0.,12.0,0.,12.0,0.,12.0
1989-08-26T15:21:30.150 ,7,0,0.,12.0,0.,12.0,0.,12.0,0.,12.0
1989-08-26T15:21:42.150 ,6,0,0.,12.0,0.,12.0,0.,12.0,0.,12.0
1989-08-26T15:21:54.150 ,6,0,0.,12.0,0.,12.0,0.,12.0,0.,12.0
1989-08-26T15:22:06.150 ,6,0,0.,12.0,0.,12.0,0.,12.0,0.,12.0
1989-08-26T15:22:18.150 ,6,0,0.,12.0,0.,12.0,0.,12.0,0.,12.0
1989-08-26T15:22:30.150 ,5,0,0.,12.0,0.,12.0,0.,12.0,0.,12.0
1989-08-26T15:22:42.150 ,5,0,0.,12.0,0.,12.0,0.,12.0,0.,12.0
1989-08-26T15:22:54.150 ,5,0,0.,12.0,0.,12.0,0.,12.0,0.,12.0
1989-08-26T15:23:06.150 ,5,0,0.,12.0,0.,12.0,0.,12.0,0.,12.0
1989-08-26T15:23:18.150 ,4,0,0.,12.0,0.,12.0,0.,12.0,0.,12.0
1989-08-26T15:23:30.150 ,4,0,0.,12.0,0.,12.0,0.,12.0,0.,12.0
1989-08-26T15:23:42.150 ,4,0,0.,12.0,0.,12.0,0.,12.0,0.,12.0
1989-08-26T15:23:54.150 ,4,0,0.,12.0,0.,12.0,0.,12.0,0.,12.0
1989-08-26T15:24:06.150 ,3,0,0.,12.0,0.,12.0,0.,12.0,0.,12.0
1989-08-26T15:24:18.150 ,3,0,0.,12.0,0.,12.0,0.,12.0,0.,12.0
1989-08-26T15:24:30.150 ,3,0,0.,12.0,0.,12.0,0.,12.0,0.,12.0
1989-08-26T15:24:42.150 ,3,0,0.,12.0,0.,12.0,0.,12.0,0.,12.0
1989-08-26T15:24:54.150 ,2,0,0.,12.0,0.,12.0,0.,12.0,0.,12.0
1989-08-26T15:25:06.150 ,2,0,0.,12.0,0.,12.0,0.,12.0,0.,12.0
1989-08-26T15:25:18.150 ,2,0,0.,12.0,0.,12.0,0.,12.0,0.,12.0
1989-08-26T15:25:30.150 ,2,0,0.,12.0,0.,12.0,0.,12.0,0.,12.0
1989-08-26T15:25:42.150 ,1,0,0.,12.0,0.,12.0,0.,12.0,0.,12.0
1989-08-26T15:25:54.150 ,1,0,0.,12.0,0.,12.0,0.,12.0,0.,12.0
1989-08-26T15:26:06.150 ,1,0,0.,12.0,0.,12.0,0.,12.0,0.,12.0
1989-08-26T15:26:18.150 ,1,0,0.,12.0,0.,12.0,0.,12.0,0.,12.0
1989-08-26T15:26:30.150 ,0,0,0.,12.0,0.,12.0,0.,12.0,0.,12.0
1989-08-26T15:26:42.150 ,0,0,0.,12.0,0.,12.0,0.,12.0,0.,12.0
1989-08-26T15:26:54.150 ,0,0,0.,12.0,0.,12.0,0.,12.0,0.,12.0
1989-08-26T15:27:06.150 ,0,0,0.,12.0,0.,12.0,0.,12.0,0.,12.0
1989-08-26T15:27:18.150 ,0,0,0.,12.0,0.,12.0,0.,12.0,0.,12.0
1989-08-26T15:27:30.150 ,0,0,0.,12.0,0.,12.0,0.,12.0,0.,12.0
1989-08-26T15:27:42.150 ,0,0,0.,12.0,0.,12.0,0.,12.0,0.,12.0
1989-08-26T15:27:54.150 ,0,0,0.,12.0,0.,12.0,0.,12.0,0.,12.0
1989-08-26T15:28:06.150 ,1,0,0.,12.0,0.,12.0,0.,12.0,0.,12.0
1989-08-26T15:28:18.150 ,1,0,0.,12.0,0.,12.0,0.,12.0,0.,12.0
1989-08-26T15:28:30.150 ,1,0,0.,12.0,0.,12.0,0.,12.0,0.,12.0
1989-08-26T15:28:42.150 ,1,0,0.,12.0,0.,12.0,0.,12.0,0.,12.0
1989-08-26T15:28:54.150 ,2,0,0.,12.0,0.,12.0,0.,12.0,0.,12.0
1989-08-26T15:29:06.150 ,2,0,0.,12.0,0.,12.0,0.,12.0,0.,12.0
1989-08-26T15:29:18.150 ,2,0,0.,12.0,0.,12.0,0.,12.0,0.,12.0
1989-08-26T15:29:30.150 ,2,0,0.,12.0,0.,12.0,0.,12.0,0.,12.0
1989-08-26T15:29:42.150 ,3,0,0.,12.0,0.,12.0,0.,12.0,0.,12.0
1989-08-26T15:29:54.150 ,3,0,0.,12.0,0.,12.0,0.,12.0,0.,12.0
1989-08-26T15:30:06.150 ,3,0,0.,12.0,0.,12.0,0.,12.0,0.,12.0
1989-08-26T15:30:18.150 ,3,0,0.,12.0,0.,12.0,0.,12.0,0.,12.0
1989-08-26T15:30:30.150 ,4,0,0.,12.0,0.,12.0,0.,12.0,0.,12.0
1989-08-26T15:30:42.150 ,4,0,0.,12.0,0.,12.0,0.,12.0,0.,12.0
1989-08-26T15:30:54.150 ,4,0,0.,12.0,0.,12.0,0.,12.0,0.,12.0
1989-08-26T15:31:06.150 ,4,0,0.,12.0,0.,12.0,0.,12.0,0.,12.0
1989-08-26T15:31:18.150 ,5,0,0.,12.0,0.,12.0,0.,12.0,0.,12.0
1989-08-26T15:31:30.150 ,5,0,0.,12.0,0.,12.0,0.,12.0,0.,12.0
1989-08-26T15:31:42.150 ,5,0,0.,12.0,0.,12.0,0.,12.0,0.,12.0
1989-08-26T15:31:54.150 ,5,0,0.,12.0,0.,12.0,0.,12.0,0.,12.0
1989-08-26T15:32:06.150 ,6,0,0.,12.0,0.,12.0,0.,12.0,0.,12.0
1989-08-26T15:32:18.150 ,6,0,0.,12.0,0.,12.0,0.,12.0,0.,12.0
1989-08-26T15:32:30.150 ,6,0,0.,12.0,0.,12.0,0.,12.0,0.,12.0
1989-08-26T15:32:42.150 ,6,0,0.,12.0,0.,12.0,0.,12.0,0.,12.0
1989-08-26T15:32:54.150 ,7,0,0.,12.0,0.,12.0,0.,12.0,0.,12.0
1989-08-26T15:33:06.150 ,7,0,0.,12.0,0.,12.0,0.,12.0,0.,12.0
1989-08-26T15:33:18.150 ,7,0,0.,12.0,0.,12.0,0.,12.0,0.,12.0
1989-08-26T15:33:30.150 ,7,0,0.,12.0,0.,12.0,0.,12.0,0.,12.0
1989-08-26T15:33:42.150 ,7,0,0.,12.0,0.,12.0,0.,12.0,0.,12.0
1989-08-26T15:33:54.150 ,7,0,0.,12.0,0.,12.0,0.,12.0,0.,12.0
1989-08-26T15:34:06.150 ,7,0,0.,12.0,0.,12.0,0.,12.0,0.,12.0
1989-08-26T15:34:18.150 ,7,0,0.,12.0,0.,12.0,0.,12.0,0.,12.0
1989-08-26T15:34:30.150 ,6,0,0.,12.0,0.,12.0,0.,12.0,0.,12.0
1989-08-26T15:34:42.150 ,6,0,0.,12.0,0.,12.0,0.,12.0,0.,12.0
1989-08-26T15:34:54.150 ,6,0,0.,12.0,0.,12.0,0.,12.0,0.,12.0
1989-08-26T15:35:06.150 ,6,0,0.,12.0,0.,12.0,0.,12.0,0.,12.0
1989-08-26T15:35:18.150 ,5,0,0.,12.0,0.,12.0,0.,12.0,0.,12.0
1989-08-26T15:35:30.150 ,5,0,0.,12.0,0.,12.0,0.,12.0,0.,12.0
1989-08-26T15:35:42.150 ,5,0,0.,12.0,0.,12.0,0.,12.0,0.,12.0
1989-08-26T15:35:54.150 ,5,0,0.,12.0,0.,12.0,0.,12.0,0.,12.0
1989-08-26T15:36:06.150 ,4,0,0.,12.0,0.,12.0,0.,12.0,0.,12.0
1989-08-26T15:36:18.150 ,4,0,0.,12.0,0.,12.0,0.,12.0,0.,12.0
1989-08-26T15:36:30.150 ,4,0,0.,12.0,0.,12.0,0.,12.0,0.,12.0
1989-08-26T15:36:42.150 ,4,0,0.,12.0,0.,12.0,0.,12.0,0.,12.0
1989-08-26T15:36:54.150 ,3,0,0.,12.0,0.,12.0,0.,12.0,0.,12.0
1989-08-26T15:37:06.150 ,3,0,0.,12.0,0.,12.0,0.,12.0,0.,12.0
1989-08-26T15:37:18.150 ,3,0,0.,12.0,0.,12.0,0.,12.0,0.,12.0
1989-08-26T15:37:30.150 ,3,0,0.,12.0,0.,12.0,0.,12.0,0.,12.0
1989-08-26T15:37:42.150 ,2,0,0.,12.0,0.,12.0,0.,12.0,0.,12.0
1989-08-26T15:37:54.150 ,2,0,0.,12.0,0.,12.0,0.,12.0,0.,12.0
1989-08-26T15:38:06.150 ,2,0,0.,12.0,0.,12.0,0.,12.0,0.,12.0
1989-08-26T15:38:18.150 ,2,0,0.,12.0,0.,12.0,0.,12.0,0.,12.0
1989-08-26T15:38:30.150 ,1,0,0.,12.0,0.,12.0,0.,12.0,0.,12.0
1989-08-26T15:38:42.150 ,1,0,0.,12.0,0.,12.0,0.,12.0,0.,12.0
1989-08-26T15:38:54.150 ,1,0,0.,12.0,0.,12.0,0.,12.0,0.,12.0
1989-08-26T15:39:06.150 ,1,0,0.,12.0,0.,12.0,0.,12.0,0.,12.0
1989-08-26T15:39:18.150 ,0,0,0.,12.0,0.,12.0,0.,12.0,0.,12.0
1989-08-26T15:39:30.150 ,0,0,0.,12.0,0.,12.0,0.,12.0,0.,12.0
1989-08-26T15:39:42.150 ,0,0,0.,12.0,0.,12.0,0.,12.0,0.,12.0
1989-08-26T15:39:54.150 ,0,0,0.,12.0,0.,12.0,0.,12.0,0.,12.0
1989-08-26T15:40:06.150 ,0,0,0.,12.0,0.,12.0,0.,12.0,0.,12.0
1989-08-26T15:40:18.150 ,0,0,0.,12.0,0.,12.0,0.,12.0,0.,12.0
1989-08-26T15:40:30.150 ,0,0,0.,12.0,0.,12.0,0.,12.0,0.,12.0
1989-08-26T15:40:42.150 ,0,0,0.,12.0,0.,12.0,0.,12.0,0.,12.0
1989-08-26T15:40:54.150 ,1,0,0.,12.0,0.,12.0,0.,12.0,0.,12.0
1989-08-26T15:41:06.150 ,1,0,0.,12.0,0.,12.0,0.,12.0,0.,12.0
1989-08-26T15:41:18.150 ,1,0,0.,12.0,0.,12.0,0.,12.0,0.,12.0
1989-08-26T15:41:30.150 ,1,0,0.,12.0,0.,12.0,0.,12.0,0.,12.0
1989-08-26T15:41:42.150 ,2,0,0.,12.0,0.,12.0,0.,12.0,0.,12.0
1989-08-26T15:41:54.150 ,2,0,0.,12.0,0.,12.0,0.,12.0,0.,12.0
1989-08-26T15:42:06.150 ,2,0,0.,12.0,0.,12.0,0.,12.0,0.,12.0
1989-08-26T15:42:18.150 ,2,0,0.,12.0,0.,12.0,0.,12.0,0.,12.0
1989-08-26T15:42:30.150 ,3,0,0.,12.0,0.,12.0,0.,12.0,0.,12.0
1989-08-26T15:42:42.150 ,3,0,0.,12.0,0.,12.0,0.,12.0,0.,12.0
1989-08-26T15:42:54.150 ,3,0,0.,12.0,0.,12.0,0.,12.0,0.,12.0
1989-08-26T15:43:06.150 ,3,0,0.,12.0,0.,12.0,0.,12.0,0.,12.0
1989-08-26T15:43:18.150 ,4,0,0.,12.0,0.,12.0,0.,12.0,0.,12.0
1989-08-26T15:43:30.150 ,4,0,0.,12.0,0.,12.0,0.,12.0,0.,12.0
1989-08-26T15:43:42.150 ,4,0,0.,12.0,0.,12.0,0.,12.0,0.,12.0
1989-08-26T15:43:54.150 ,4,0,0.,12.0,0.,12.0,0.,12.0,0.,12.0
1989-08-26T15:44:06.150 ,5,0,0.,12.0,0.,12.0,0.,12.0,0.,12.0
1989-08-26T15:44:18.150 ,5,0,0.,12.0,0.,12.0,0.,12.0,0.,12.0
1989-08-26T15:44:30.150 ,5,0,0.,12.0,0.,12.0,0.,12.0,0.,12.0
1989-08-26T15:44:42.150 ,5,0,0.,12.0,0.,12.0,0.,12.0,0.,12.0
1989-08-26T15:44:54.150 ,6,0,0.,12.0,0.,12.0,0.,12.0,0.,12.0
1989-08-26T15:45:06.150 ,6,0,0.,12.0,0.,12.0,0.,12.0,0.,12.0
1989-08-26T15:45:18.150 ,6,0,0.,12.0,0.,12.0,0.,12.0,0.,12.0
1989-08-26T15:45:30.150 ,6,0,0.,12.0,0.,12.0,0.,12.0,0.,12.0
1989-08-26T15:45:42.150 ,7,0,0.,12.0,0.,12.0,0.,12.0,0.,12.0
1989-08-26T15:45:54.150 ,7,0,0.,12.0,0.,12.0,0.,12.0,0.,12.0
1989-08-26T15:46:06.150 ,7,0,0.,12.0,0.,12.0,0.,12.0,0.,12.0
1989-08-26T15:46:18.150 ,7,0,0.,12.0,0.,12.0,0.,12.0,0.,12.0
1989-08-26T15:46:30.150 ,7,0,0.,12.0,0.,12.0,0.,12.0,0.,12.0
1989-08-26T15:46:42.150 ,7,0,0.,12.0,0.,12.0,0.,12.0,0.,12.0
1989-08-26T15:46:54.150 ,7,0,0.,12.0,0.,12.0,0.,12.0,0.,12.0
1989-08-26T15:47:06.150 ,7,0,0.,12.0,0.,12.0,0.,12.0,0.,12.0
1989-08-26T15:47:18.150 ,6,0,0.,12.0,0.,12.0,0.,12.0,0.,12.0
1989-08-26T15:47:30.150 ,6,0,0.,12.0,0.,12.0,0.,12.0,0.,12.0
1989-08-26T15:47:42.150 ,6,0,0.,12.0,0.,12.0,0.,12.0,0.,12.0
1989-08-26T15:47:54.150 ,6,0,0.,12.0,0.,12.0,0.,12.0,0.,12.0
1989-08-26T15:48:06.150 ,5,0,0.,12.0,0.,12.0,0.,12.0,0.,12.0
1989-08-26T15:48:18.150 ,5,0,0.,12.0,0.,12.0,0.,12.0,0.,12.0
1989-08-26T15:48:30.150 ,5,0,0.,12.0,0.,12.0,0.,12.0,0.,12.0
1989-08-26T15:48:42.150 ,5,0,0.,12.0,0.,12.0,0.,12.0,0.,12.0
1989-08-26T15:48:54.140 ,4,0,0.,12.0,0.,12.0,0.,12.0,0.,12.0
1989-08-26T15:49:06.140 ,4,0,0.,12.0,0.,12.0,0.,12.0,0.,12.0
1989-08-26T15:49:18.140 ,4,0,0.,12.0,0.,12.0,0.,12.0,0.,12.0
1989-08-26T15:49:30.140 ,4,0,0.,12.0,0.,12.0,0.,12.0,0.,12.0
1989-08-26T15:49:42.140 ,3,0,0.,12.0,0.,12.0,0.,12.0,0.,12.0
1989-08-26T15:49:54.140 ,3,0,0.,12.0,0.,12.0,0.,12.0,0.,12.0
1989-08-26T15:50:06.140 ,3,0,0.,12.0,0.,12.0,0.,12.0,0.,12.0
1989-08-26T15:50:18.140 ,3,0,0.,12.0,0.,12.0,0.,12.0,0.,12.0
1989-08-26T15:50:30.140 ,2,0,0.,12.0,0.,12.0,0.,12.0,0.,12.0
1989-08-26T15:50:42.140 ,2,0,0.,12.0,0.,12.0,0.,12.0,0.,12.0
1989-08-26T15:50:54.140 ,2,0,0.,12.0,0.,12.0,0.,12.0,0.,12.0
1989-08-26T15:51:06.140 ,2,0,0.,12.0,0.,12.0,0.,12.0,0.,12.0
1989-08-26T15:51:18.140 ,1,0,0.,12.0,0.,12.0,0.,12.0,0.,12.0
1989-08-26T15:51:30.140 ,1,0,0.,12.0,0.,12.0,0.,12.0,0.,12.0
1989-08-26T15:51:42.140 ,1,0,0.,12.0,0.,12.0,0.,12.0,0.,12.0
1989-08-26T15:51:54.140 ,1,0,0.,12.0,0.,12.0,0.,12.0,0.,12.0
1989-08-26T15:52:06.140 ,0,0,0.,12.0,0.,12.0,0.,12.0,0.,12.0
1989-08-26T15:52:18.140 ,0,0,0.,12.0,0.,12.0,0.,12.0,0.,12.0
1989-08-26T15:52:30.140 ,0,0,0.,12.0,0.,12.0,0.,12.0,0.,12.0
1989-08-26T15:52:42.140 ,0,0,0.,12.0,0.,12.0,0.,12.0,0.,12.0
1989-08-26T15:52:54.140 ,0,0,0.,12.0,0.,12.0,0.,12.0,0.,12.0
1989-08-26T15:53:06.140 ,0,0,0.,12.0,0.,12.0,0.,12.0,0.,12.0
1989-08-26T15:53:18.140 ,0,0,0.,12.0,0.,12.0,0.,12.0,0.,12.0
1989-08-26T15:53:30.140 ,0,0,0.,12.0,0.,12.0,0.,12.0,0.,12.0
1989-08-26T15:53:42.140 ,1,0,0.,12.0,0.,12.0,0.,12.0,0.,12.0
1989-08-26T15:53:54.140 ,1,0,0.,12.0,0.,12.0,0.,12.0,0.,12.0
1989-08-26T15:54:06.140 ,1,0,0.,12.0,0.,12.0,0.,12.0,0.,12.0
1989-08-26T15:54:18.140 ,1,0,0.,12.0,0.,12.0,0.,12.0,0.,12.0
1989-08-26T15:54:30.140 ,2,0,0.,12.0,0.,12.0,0.,12.0,0.,12.0
1989-08-26T15:54:42.140 ,2,0,0.,12.0,0.,12.0,0.,12.0,0.,12.0
1989-08-26T15:54:54.140 ,2,0,0.,12.0,0.,12.0,0.,12.0,0.,12.0
1989-08-26T15:55:06.140 ,2,0,0.,12.0,0.,12.0,0.,12.0,0.,12.0
1989-08-26T15:55:18.140 ,3,0,0.,12.0,0.,12.0,0.,12.0,0.,12.0
1989-08-26T15:55:30.140 ,3,0,0.,12.0,0.,12.0,0.,12.0,0.,12.0
1989-08-26T15:55:42.140 ,3,0,0.,12.0,0.,12.0,0.,12.0,0.,12.0
1989-08-26T15:55:54.140 ,3,0,0.,12.0,0.,12.0,0.,12.0,0.,12.0
1989-08-26T15:56:06.140 ,4,0,0.,12.0,0.,12.0,0.,12.0,0.,12.0
1989-08-26T15:56:18.140 ,4,0,0.,12.0,0.,12.0,0.,12.0,0.,12.0
1989-08-26T15:56:30.140 ,4,0,0.,12.0,0.,12.0,0.,12.0,0.,12.0
1989-08-26T15:56:42.140 ,4,0,0.,12.0,0.,12.0,0.,12.0,0.,12.0
1989-08-26T15:56:54.140 ,5,0,0.,12.0,0.,12.0,0.,12.0,0.,12.0
1989-08-26T15:57:06.140 ,5,0,0.,12.0,0.,12.0,0.,12.0,0.,12.0
1989-08-26T15:57:18.140 ,5,0,0.,12.0,0.,12.0,0.,12.0,0.,12.0
1989-08-26T15:57:30.140 ,5,0,0.,12.0,0.,12.0,0.,12.0,0.,12.0
1989-08-26T15:57:42.140 ,6,0,0.,12.0,0.,12.0,0.,12.0,0.,12.0
1989-08-26T15:57:54.140 ,6,0,0.,12.0,0.,12.0,0.,12.0,0.,12.0
1989-08-26T15:58:06.140 ,6,0,0.,12.0,0.,12.0,0.,12.0,0.,12.0
1989-08-26T15:58:18.140 ,6,0,0.,12.0,0.,12.0,0.,12.0,0.,12.0
1989-08-26T15:58:30.140 ,7,0,0.,12.0,0.,12.0,0.,12.0,0.,12.0
1989-08-26T15:58:42.140 ,7,0,0.,12.0,0.,12.0,0.,12.0,0.,12.0
1989-08-26T15:58:54.140 ,7,0,0.,12.0,0.,12.0,0.,12.0,0.,12.0
1989-08-26T15:59:06.140 ,7,0,0.,12.0,0.,12.0,0.,12.0,0.,12.0
1989-08-26T15:59:18.140 ,7,0,0.,12.0,0.,12.0,0.,12.0,0.,12.0
1989-08-26T15:59:30.140 ,7,0,0.,12.0,0.,12.0,0.,12.0,0.,12.0
1989-08-26T15:59:42.140 ,7,0,0.,12.0,0.,12.0,0.,12.0,0.,12.0
1989-08-26T15:59:54.140 ,7,0,0.,12.0,0.,12.0,0.,12.0,0.,12.0
1989-08-26T16:00:06.140 ,6,0,0.,12.0,0.,12.0,0.,12.0,0.,12.0
1989-08-26T16:00:18.140 ,6,0,0.,12.0,0.,12.0,0.,12.0,0.,12.0
1989-08-26T16:00:30.140 ,6,0,0.,12.0,0.,12.0,0.,12.0,0.,12.0
1989-08-26T16:00:42.140 ,6,0,0.,12.0,0.,12.0,0.,12.0,0.,12.0
1989-08-26T16:00:54.140 ,5,0,0.,12.0,0.,12.0,0.,12.0,0.,12.0
1989-08-26T16:01:06.140 ,5,0,0.,12.0,0.,12.0,0.,12.0,0.,12.0
1989-08-26T16:01:18.140 ,5,0,0.,12.0,0.,12.0,0.,12.0,0.,12.0
1989-08-26T16:01:30.140 ,5,0,0.,12.0,0.,12.0,0.,12.0,0.,12.0
1989-08-26T16:01:42.140 ,4,0,0.,12.0,0.,12.0,0.,12.0,0.,12.0
1989-08-26T16:01:54.140 ,4,0,0.,12.0,0.,12.0,0.,12.0,0.,12.0
1989-08-26T16:02:06.140 ,4,0,0.,12.0,0.,12.0,0.,12.0,0.,12.0
1989-08-26T16:02:18.140 ,4,0,0.,12.0,0.,12.0,0.,12.0,0.,12.0
1989-08-26T16:02:30.140 ,3,0,0.,12.0,0.,12.0,0.,12.0,0.,12.0
1989-08-26T16:02:42.140 ,3,0,0.,12.0,0.,12.0,0.,12.0,0.,12.0
1989-08-26T16:02:54.140 ,3,0,0.,12.0,0.,12.0,0.,12.0,0.,12.0
1989-08-26T16:03:06.140 ,3,0,0.,12.0,0.,12.0,0.,12.0,0.,12.0
1989-08-26T16:03:18.140 ,2,0,0.,12.0,0.,12.0,0.,12.0,0.,12.0
1989-08-26T16:03:30.140 ,2,0,0.,12.0,0.,12.0,0.,12.0,0.,12.0
1989-08-26T16:03:42.140 ,2,0,0.,12.0,0.,12.0,0.,12.0,0.,12.0
1989-08-26T16:03:54.140 ,2,0,0.,12.0,0.,12.0,0.,12.0,0.,12.0
1989-08-26T16:04:06.140 ,1,0,0.,12.0,0.,12.0,0.,12.0,0.,12.0
1989-08-26T16:04:18.140 ,1,0,0.,12.0,0.,12.0,0.,12.0,0.,12.0
1989-08-26T16:04:30.140 ,1,0,0.,12.0,0.,12.0,0.,12.0,0.,12.0
1989-08-26T16:04:42.140 ,1,0,0.,12.0,0.,12.0,0.,12.0,0.,12.0
1989-08-26T16:04:54.140 ,0,0,0.,12.0,0.,12.0,0.,12.0,0.,12.0
1989-08-26T16:05:06.140 ,0,0,0.,12.0,0.,12.0,0.,12.0,0.,12.0
1989-08-26T16:05:18.140 ,0,0,0.,12.0,0.,12.0,0.,12.0,0.,12.0
1989-08-26T16:05:30.140 ,0,0,0.,12.0,0.,12.0,0.,12.0,0.,12.0
1989-08-26T16:05:42.140 ,0,0,0.,12.0,0.,12.0,0.,12.0,0.,12.0
1989-08-26T16:05:54.140 ,0,0,0.,12.0,0.,12.0,0.,12.0,0.,12.0
1989-08-26T16:06:06.140 ,0,0,0.,12.0,0.,12.0,0.,12.0,0.,12.0
1989-08-26T16:06:18.140 ,0,0,0.,12.0,0.,12.0,0.,12.0,0.,12.0
1989-08-26T16:06:30.140 ,1,0,0.,12.0,0.,12.0,0.,12.0,0.,12.0
1989-08-26T16:06:42.140 ,1,0,0.,12.0,0.,12.0,0.,12.0,0.,12.0
1989-08-26T16:06:54.140 ,1,0,0.,12.0,0.,12.0,0.,12.0,0.,12.0
1989-08-26T16:07:06.140 ,1,0,0.,12.0,0.,12.0,0.,12.0,0.,12.0
1989-08-26T16:07:18.140 ,2,0,0.,12.0,0.,12.0,0.,12.0,0.,12.0
1989-08-26T16:07:30.140 ,2,0,0.,12.0,0.,12.0,0.,12.0,0.,12.0
1989-08-26T16:07:42.140 ,2,0,0.,12.0,0.,12.0,0.,12.0,0.,12.0
1989-08-26T16:07:54.140 ,2,0,0.,12.0,0.,12.0,0.,12.0,0.,12.0
1989-08-26T16:08:06.140 ,3,0,0.,12.0,0.,12.0,0.,12.0,0.,12.0
1989-08-26T16:08:18.140 ,3,0,0.,12.0,0.,12.0,0.,12.0,0.,12.0
1989-08-26T16:08:30.140 ,3,0,0.,12.0,0.,12.0,0.,12.0,0.,12.0
1989-08-26T16:08:42.140 ,3,0,0.,12.0,0.,12.0,0.,12.0,0.,12.0
1989-08-26T16:08:54.140 ,4,0,0.,12.0,0.,12.0,0.,12.0,0.,12.0
1989-08-26T16:09:06.140 ,4,0,0.,12.0,0.,12.0,0.,12.0,0.,12.0
1989-08-26T16:09:18.140 ,4,0,0.,12.0,0.,12.0,0.,12.0,0.,12.0
1989-08-26T16:09:30.140 ,4,0,0.,12.0,0.,12.0,0.,12.0,0.,12.0
1989-08-26T16:09:42.140 ,5,0,0.,12.0,0.,12.0,0.,12.0,0.,12.0
1989-08-26T16:09:54.140 ,5,0,0.,12.0,0.,12.0,0.,12.0,0.,12.0
1989-08-26T16:10:06.140 ,5,0,0.,12.0,0.,12.0,0.,12.0,0.,12.0
1989-08-26T16:10:18.140 ,5,0,0.,12.0,0.,12.0,0.,12.0,0.,12.0
1989-08-26T16:10:30.140 ,6,0,0.,12.0,0.,12.0,0.,12.0,0.,12.0
1989-08-26T16:10:42.140 ,6,0,0.,12.0,0.,12.0,0.,12.0,0.,12.0
1989-08-26T16:10:54.140 ,6,0,0.,12.0,0.,12.0,0.,12.0,0.,12.0
1989-08-26T16:11:06.140 ,6,0,0.,12.0,0.,12.0,0.,12.0,0.,12.0
1989-08-26T16:11:18.140 ,7,0,0.,12.0,0.,12.0,0.,12.0,0.,12.0
1989-08-26T16:11:30.140 ,7,0,0.,12.0,0.,12.0,0.,12.0,0.,12.0
1989-08-26T16:11:42.140 ,7,0,0.,12.0,0.,12.0,0.,12.0,0.,12.0
1989-08-26T16:11:54.140 ,7,0,0.,12.0,0.,12.0,0.,12.0,0.,12.0
1989-08-26T16:12:06.140 ,7,0,0.,12.0,0.,12.0,0.,12.0,0.,12.0
1989-08-26T16:12:18.140 ,7,0,0.,12.0,0.,12.0,0.,12.0,0.,12.0
1989-08-26T16:12:30.140 ,7,0,0.,12.0,0.,12.0,0.,12.0,0.,12.0
1989-08-26T16:12:42.140 ,7,0,0.,12.0,0.,12.0,0.,12.0,0.,12.0
1989-08-26T16:12:54.140 ,6,0,0.,12.0,0.,12.0,0.,12.0,0.,12.0
1989-08-26T16:13:06.140 ,6,0,0.,12.0,0.,12.0,0.,12.0,0.,12.0
1989-08-26T16:13:18.140 ,6,0,0.,12.0,0.,12.0,0.,12.0,0.,12.0
1989-08-26T16:13:30.140 ,6,0,0.,12.0,0.,12.0,0.,12.0,0.,12.0
1989-08-26T16:13:42.140 ,5,0,0.,12.0,0.,12.0,0.,12.0,0.,12.0
1989-08-26T16:13:54.140 ,5,0,0.,12.0,0.,12.0,0.,12.0,0.,12.0
1989-08-26T16:14:06.140 ,5,0,0.,12.0,0.,12.0,0.,12.0,0.,12.0
1989-08-26T16:14:18.140 ,5,0,0.,12.0,0.,12.0,0.,12.0,0.,12.0
1989-08-26T16:14:30.140 ,4,0,0.,12.0,0.,12.0,0.,12.0,0.,12.0
1989-08-26T16:14:42.140 ,4,0,0.,12.0,0.,12.0,0.,12.0,0.,12.0
1989-08-26T16:14:54.140 ,4,0,0.,12.0,0.,12.0,0.,12.0,0.,12.0
1989-08-26T16:15:06.140 ,4,0,0.,12.0,0.,12.0,0.,12.0,0.,12.0
1989-08-26T16:15:18.140 ,3,0,0.,12.0,0.,12.0,0.,12.0,0.,12.0
1989-08-26T16:15:30.140 ,3,0,0.,12.0,0.,12.0,0.,12.0,0.,12.0
1989-08-26T16:15:42.140 ,3,0,0.,12.0,0.,12.0,0.,12.0,0.,12.0
1989-08-26T16:15:54.140 ,3,0,0.,12.0,0.,12.0,0.,12.0,0.,12.0
1989-08-26T16:16:06.140 ,2,0,0.,12.0,0.,12.0,0.,12.0,0.,12.0
1989-08-26T16:16:18.140 ,2,0,0.,12.0,0.,12.0,0.,12.0,0.,12.0
1989-08-26T16:16:30.140 ,2,0,0.,12.0,0.,12.0,0.,12.0,0.,12.0
1989-08-26T16:16:42.140 ,2,0,0.,12.0,0.,12.0,0.,12.0,0.,12.0
1989-08-26T16:16:54.140 ,1,0,0.,12.0,0.,12.0,0.,12.0,0.,12.0
1989-08-26T16:17:06.140 ,1,0,0.,12.0,0.,12.0,0.,12.0,0.,12.0
1989-08-26T16:17:18.140 ,1,0,0.,12.0,0.,12.0,0.,12.0,0.,12.0
1989-08-26T16:17:30.140 ,1,0,0.,12.0,0.,12.0,0.,12.0,0.,12.0
1989-08-26T16:17:42.140 ,0,0,0.,12.0,0.,12.0,0.,12.0,0.,12.0